Regional Weather Roundup
Issued by NWS

Home | Current Version | Previous Version | Graphics & Text | Print | Product List | Glossary On
Versions: 1 2 3 4 5 6 7 8 9 10 11 12 13 14 15 16 17 18 19 20 21 22 23 24 25 26 27
000
ASUS45 KBOI 171510
RWRID

IDAHO REGIONAL WEATHER ROUNDUP
NATIONAL WEATHER SERVICE BOISE ID
800 AM MST TUE JAN 17 2017

NOTE: "FAIR" INDICATES FEW OR NO CLOUDS BELOW 12000 FEET
WITH NO SIGNIFICANT WEATHER AND/OR OBSTRUCTIONS TO VISIBILITY

IDZ012-014-171600-
SOUTHWEST IDAHO


CITY           SKY/WX    TMP DP  RH WIND       PRES   REMARKS
BOISE          CLEAR      1  -3  83 S5        30.36S FOG     WCI  -9
CALDWELL       CLEAR     -4  -8  83 CALM      30.41F FOG
MOUNTAIN HOME  SNOW       4   4  99 CALM      30.35R VSB 0
$$

IDZ016-017-171600-
SOUTHCENTRAL IDAHO


CITY           SKY/WX    TMP DP  RH WIND       PRES   REMARKS
BURLEY         PTCLDY     5  -1  76 NE9       30.27R WCI  -9
JEROME         CLEAR      7   3  84 E14       30.27R WCI -10
TWIN FALLS     CLEAR      6   2  83 SE7       30.26S WCI  -6
$$

IDZ019>023-171600-
SOUTHEAST IDAHO


CITY           SKY/WX    TMP DP  RH WIND       PRES   REMARKS
IDAHO FALLS    CLOUDY    -5  -8  87 N7        30.29R WCI -19
POCATELLO      CLOUDY    -3  -6  87 CALM      30.30R FOG
REXBURG        CLOUDY    -5  -9  83 CALM      30.27R
$$

IDZ006-010-011-018-031-032-171600-
CENTRAL IDAHO MOUNTAINS


CITY           SKY/WX    TMP DP  RH WIND       PRES   REMARKS
MCCALL         CLOUDY    -3  -8  79 CALM      30.14S
HAILEY         PTCLDY     3   0  85 NW7       30.23R WCI  -9
STANLEY          N/A    -13 -18  78 CALM      30.20S
SALMON         CLOUDY   -17 -18  91 CALM      30.38S
CHALLIS        PTCLDY   -17 -20  86 CALM      30.28R
$$

IDZ002-004-006-007-026-171600-
NORTHERN IDAHO


CITY           SKY/WX    TMP DP  RH WIND       PRES   REMARKS
LEWISTON       CLOUDY    27  16  63 S17G26    30.09S WCI  14
LOWELL           N/A     14  10  84 NW8       30.22S WCI   3
COEUR D`ALENE  FLURRIES  15  13  91 E3        30.04F
MULLAN PASS    CLOUDY    25  17  72 S7        29.93R WCI  17
$$




USA.gov is the U.S. government's official web portal to all federal, state and local government web resources and services.